Location: Étang Rond
(42.7927°N, 1.0661°E)
Time: 01:36:16
(UTC+00:00)

Cosmos 1140 Rocket - Pass Details

Date: 08 November 2025
Orbit: 740 x 761 km, 74.1° (Epoch: 07 December)

Event Time Altitude Azimuth Distance (km) Brightness Sun altitude
Exits shadow 04:15:49 19° 356° (N) 1,733 5.3 -26.5°
Maximum altitude 04:19:20 51° 66° (ENE) 937 4.2 -25.8°
Drops below altitude 10° 04:24:16 10° 142° (SE) 2,245 6.4 -24.9°
Sets 04:26:41 0° 147° (SSE) 3,163 7.1 -24.5°
